DELTA 1 DEB, 7025

Orbit data source: Space-Track

DELTA 1 DEB, 7025 is space debris in LEO originally from a launch on Tue, 06 Nov 1973 UTC launched from the Air Force Western Test Range (AFWTR). Debris objects in space refer to the collection of defunct objects orbiting the Earth. Examples of debris include non-operational satellites, rocket bodies, and fragments generated from explosions, collisions, or faulty payload assembly.

Loading next visibility...
Identifier
7025, 1973-086R
Orbit
LEO
Country
Flag of USUS
Related business
Manufacturer
Unknown
Mission
Spacecraft
Bus & Motor
Unknown
Mass
Unknown
Launch date (UTC)
1973-11-06 (52 years ago)
Launch vehicle
Unknown
Launch site
Air Force Western Test Range (AFWTR)
Object type
Payload
Rocket body
Debris
Shape & HBR
Unknown shape, 0.3 m
Radar Cross Section
Medium (>0.1 m² and <1 m²)

Expand to show TLE details & history
Last TLE update: 7 hours ago

TLE from 7 hours ago
0 DELTA 1 DEB
1  7025U 73086R   25297.64376890 -.00000032  00000-0  43774-4 0  9991
2  7025 101.8996 316.8009 0463280 199.7118 286.3792 11.54259803190034
Epoch: 2025-10-24T15:27Z
TLE epoch observation values (Epoch: 2025-10-24T15:27:01.632Z)
Latitude
57.17123°
Longitude
-109.27146°
Altitude
1,810.32 km
Speed
7.022 km/s
True Right ascension
10h 23m 05s
True Declination
57° 02' 04"
Sunlit
Object was in daylight at epoch
Visualization orbit readout
Latitude
Unknown
Longitude
Unknown
Altitude
Unknown
Speed
Unknown
Apparent Right ascension
Unknown
Apparent Declination
Unknown
Sunlit
N/A
Visualization observer readout
Local Sidereal Time
17:45:53
Azimuth
Unknown
Elevation
Unknown
Doppler factor
Unknown
Orbital elements
Apogee altitude
2,273.107 km
Perigee altitude
1,507.009 km
Semi-major axis
8,268.195 km
Eccentricity
0.04633
Inclination
101.8996°
RAAN
316.8009°
Arg. of periapsis
199.7118°
True anomaly
281.2084°
Mean anomaly
286.3792°
Eccentric anomaly
283.80144°
Mean motion
2.88687 °/min
Orbital period
124.7 mins
BSTAR
0.000043774
Loading maneuver chart data...
Computing Atmospheric mass density...
Loading historical data...
Loading historical data...
Loading historical data...
Loading historical data...
Loading historical data...
Loading historical data...
Loading historical data...

Documentation

Showing up to 5 results
|